User: anonymous
Location: Unspecified
(0.0000°N, 0.0000°E)
Time: 02:22:12
(UTC+02:00)
Language:

ARIANE 5 R/B - Orbit

View from above orbital plane
View from above orbital plane
View from above satellite
View from above satellite

Ground track
Ground track

The orbit data is extracted from the following two-line orbital elements,

1 28379U 04027B   14212.80934058 -.00000304  00000-0 -10271-2 0  6752
2 28379 007.3493 326.1321 7285195 091.2668 012.2684 02.07924001 76263
Epoch (UTC): 31 July 2014 19:25:27
Eccentricity: 0.7285195
inclination: 7.3493°
perigee height: 661 km
apogee height: 38441 km
right ascension of ascending node: 326.1321°
argument of perigee: 91.2668°
revolutions per day: 2.07924001
mean anomaly at epoch: 12.2684°
orbit number at epoch: 7626

The dashed part of the orbit path shows where the satellite is in the earth's shadow,  

DLR